Location: Kapuskasing
(49.3803°N, 82.4001°W)
Time: 11:17:56
(UTC-04:00)

RS-44 - Pass Details

Date: 21 March 2026
Orbit: 1175 x 1510 km, 82.5° (Epoch: 11 April)

Event Time Altitude Azimuth Distance (km) Brightness Sun altitude
Rises 03:21:57 0° 349° (N) 4,446 ? -35.5°
Reaches altitude 10° 03:24:42 10° 349° (N) 3,508 ? -35.2°
Maximum altitude 03:33:14 89° 262° (W) 1,477 ? -34.4°
Enters shadow 03:33:39 83° 184° (S) 1,488 ? -34.4°
